Regional Weather Roundup
Issued by NWS

Home | Current Version | Previous Version | Graphics & Text | Print | Product List | Glossary On
Versions: 1 2 3 4 5 6 7 8 9 10 11 12 13 14 15 16 17 18 19 20 21 22 23 24 25 26 27 28 29 30 31 32 33 34 35 36 37 38 39 40 41 42 43 44 45 46 47 48 49 50
000
ASUS43 KLOT 240003
RWRIL

ILLINOIS REGIONAL WEATHER ROUNDUP
NATIONAL WEATHER SERVICE CHICAGO/ROMEOVILLE IL
700 PM CDT WED MAY 23 2018

NOTE: "FAIR" INDICATES FEW OR NO CLOUDS BELOW 12,000 FEET WITH NO
SIGNIFICANT WEATHER AND/OR OBSTRUCTIONS TO VISIBILITY.

* THESE STATIONS ARE NOT UNDER NWS QUALITY CONTROL. THEY ALSO MAY NOT
  REPORT WEATHER SUCH AS PRECIPITATION OR FOG.

ILZ001-002-007-009-015-016-024-240100-
NORTHWEST ILLINOIS

CITY           SKY/WX    TMP DP  RH WIND       PRES   REMARKS
MOLINE         FAIR      82  62  50 E9        30.10R HX  83
6HR MIN TEMP:  80; 6HR MAX TEMP:  85;

STERLING*      FAIR      79  59  50 MISG        N/A  HX  80
SAVANNA*       FAIR      80  59  48 SE6       30.12R HX  80
$$

ILZ003-004-008-010-011-017-018-240100-
NORTH CENTRAL ILLINOIS

CITY           SKY/WX    TMP DP  RH WIND       PRES   REMARKS
ROCKFORD       FAIR      77  57  50 SE5       30.14S
6HR MIN TEMP:  74; 6HR MAX TEMP:  79;

FREEPORT*      FAIR      77  59  54 CALM      30.15S
ROCHELLE*      FAIR      78  57  48 SE6       30.14S
DE KALB*       FAIR      77  59  54 SE5       30.15S
PERU*          FAIR      79  60  51 E6        30.12S HX  80
$$

ILZ005-006-012>014-019>023-240100-
NORTHEAST ILLINOIS

CITY           SKY/WX    TMP DP  RH WIND       PRES   REMARKS
CHICAGO-OHARE  FAIR      76  47  35 E9        30.14S
6HR MIN TEMP:  76; 6HR MAX TEMP:  80;

CHICAGO-MIDWAY PTSUNNY   72  50  45 E9        30.14F
6HR MIN TEMP:  72; 6HR MAX TEMP:  78;

AURORA         FAIR      79  58  48 SE5       30.13S HX  80
6HR MIN TEMP:  75; 6HR MAX TEMP:  81;

LANSING*       FAIR      69  51  51 NE9       30.15S
JOLIET*        FAIR      79  53  39 NE10      30.13S
WAUKEGAN       FAIR      66  51  58 E3        30.15S
6HR MIN TEMP:  66; 6HR MAX TEMP:  72;

DUPAGE AIRPORT FAIR      76  52  43 E7        30.13S
6HR MIN TEMP:  74; 6HR MAX TEMP:  81;

KANKAKEE*      FAIR      77  52  41 E5        30.13S
WHEELING       FAIR      73  49  42 E5        30.16S
6HR MIN TEMP:  73; 6HR MAX TEMP:  79;

MORRIS*        FAIR      79  57  46 E3        30.11S HX  80
ROMEOVILLE*    FAIR      76  51  41 E8        30.14S
NORTHERLY ISL    N/A     58  53  84 NE3         N/A
$$

LMZ740>746-240100-
SOUTHERN LAKE MICHIGAN

STATION/POSITION SKY/WX   TEMP    WIND        PRES    VSBY  WAVE
                          AIR SEA DIR/SP/G                  HT/PER
                          (F)     (DEG/KT/KT) (MB)    (MI)  (FT/S)
SOUTHERN BUOY              49 39   90/  6/  6 1022.2F         0
WILMETTE HARBOR            54 52  150/  4/  4   N/A           0
HARRISON CRIB              58      90/  6/  7   N/A
BURNHAM HARBOR             58      50/  2/  4   N/A
CALUMET HARBOR             58      40/  4/  6 1020.8S
BURNS HARBOR               61      60/  7/  8 1021.7S
MICHIGAN CITY              58      40/ 10/ 10   N/A
MICHIGAN CITY 6N           58 57   80/  6/  6   N/A           1
ST. JOSEPH                 58 56   60/  8/ 10 1021.5F         1
$$

ILZ025>027-034>036-040-047-049-050-058-095>099-240100-
WEST-CENTRAL ILLINOIS

CITY           SKY/WX    TMP DP  RH WIND       PRES   REMARKS
QUINCY         SUNNY     83  63  50 SE6       30.09S HX  84
GALESBURG*     FAIR      82  59  44 NE6       30.12R HX  82
MACOMB*        SUNNY     82  63  51 E7        30.12R HX  83
JACKSONVILLE*  SUNNY     83  61  46 NE5       30.09S HX  84
PITTSFIELD*    SUNNY     84  65  52 SE6       30.11R HX  85
$$

ILZ028>032-037-038-041>044-048-051>054-059>061-240100-
CENTRAL ILLINOIS

CITY           SKY/WX    TMP DP  RH WIND       PRES   REMARKS
PONTIAC        FAIR      83  53  34 E7        30.11F HX  82
BLOOMINGTON    FAIR      82  50  32 SE9       30.11S HX  81
DECATUR        FAIR      82  51  34 E8        30.09S HX  81
PEORIA         FAIR      83  59  44 N3        30.10S HX  83
6HR MIN TEMP:  78; 6HR MAX TEMP:  84;

LINCOLN*       FAIR      86  53  31 SE5       30.09R HX  84
SPRINGFIELD    FAIR      85  58  39 NE6       30.09R HX  84
6HR MIN TEMP:  84; 6HR MAX TEMP:  88;

TAYLORVILLE    FAIR      83  57  40 SE6       30.10R HX  83
6HR MIN TEMP:  80; 6HR MAX TEMP:  86;

$$

ILZ033-039-045-046-055>057-062-063-240100-
EAST-CENTRAL ILLINOIS

CITY           SKY/WX    TMP DP  RH WIND       PRES   REMARKS
CHAMPAIGN      FAIR      81  52  36 E9        30.11S HX  80
DANVILLE*      FAIR      80  54  41 E8        30.10R HX  80
RANTOUL*       FAIR      83  54  36 E6        30.11S HX  82
MATTOON        FAIR      79  62  56 SE5       30.09S HX  80
PARIS*         FAIR      81  57  43 E6        30.11S HX  81
$$

ILZ079-100>102-240100-
SOUTHWEST ILLINOIS

CITY           SKY/WX    TMP DP  RH WIND       PRES   REMARKS
ALTON          MOSUNNY   82  66  57 E8        30.10R HX  85
BELLEVILLE     SUNNY     83  61  46 E3        30.08R HX  83
CAHOKIA*       SUNNY     84  61  45 E6        30.09R HX  84
SPARTA*        MOSUNNY   80  64  58 NE5       30.11S HX  82
$$

ILZ064>066-069>071-074>076-080>082-084>086-088>090-092>094-240100-
SOUTH-CENTRAL ILLINOIS

CITY           SKY/WX    TMP DP  RH WIND       PRES   REMARKS
CARBONDALE     FAIR      82  64  54 NE5       30.08R HX  83
6HR MIN TEMP:  82; 6HR MAX TEMP:  86;

CAIRO*         FAIR      83  65  54 NE5       30.07S HX  85
EFFINGHAM*     FAIR      83  55  38 NE6       30.11R HX  82
MARION         MOSUNNY   82  61  47 NE6       30.09R HX  83
MT. VERNON     FAIR      81  63  54 CALM      30.09R HX  82
CENTRALIA*     SUNNY     84  62  48 E5        30.09R HX  84
SALEM*         FAIR      84  59  42 E5        30.10R HX  84
METROPOLIS*    FAIR      83  64  51 CALM      30.08R HX  85
$$

ILZ067-068-072-073-078-083-087-091-240100-
SOUTHEAST ILLINOIS

CITY           SKY/WX    TMP DP  RH WIND       PRES   REMARKS
LAWRENCEVILLE  FAIR      84  56  38 E9        30.09R HX  83
FLORA*         FAIR      85  62  45 NE3       30.09R HX  85
FAIRFIELD*     FAIR      84  56  38 NE5       30.07S HX  83
HARRISBURG*    FAIR      83  64  51 N5        30.08R HX  84
ROBINSON*      FAIR      80  60  51 E7        30.09S HX  81
CARMI*         FAIR      85  60  42 NE7       30.07S HX  84
$$

ABBREVIATIONS USED IN REMARKS
   TC - TEMPERATURE IN CELSIUS
  WCI - WIND CHILL INDEX
   HX - HEAT INDEX
  VSB - VISIBILITY
$$





USA.gov is the U.S. government's official web portal to all federal, state and local government web resources and services.